TimeEST,TemperatureF,Dew PointF,Humidity,Sea Level PressureIn,VisibilityMPH,Wind Direction,Wind SpeedMPH,Gust SpeedMPH,PrecipitationIn,Events,Conditions,WindDirDegrees,DateUTC
12:56 AM,48.0,37.9,68,30.49,10.0,NNE,8.1,-,N/A,,Overcast,30,2012-11-19 05:56:00
1:56 AM,48.0,39.0,71,30.48,10.0,NE,12.7,-,N/A,,Overcast,50,2012-11-19 06:56:00
2:56 AM,48.9,37.9,66,30.48,10.0,NE,12.7,-,N/A,,Overcast,40,2012-11-19 07:56:00
3:56 AM,48.0,37.0,66,30.45,10.0,NNE,10.4,-,N/A,,Overcast,30,2012-11-19 08:56:00
4:56 AM,48.0,37.9,68,30.45,10.0,NNE,12.7,-,N/A,,Overcast,30,2012-11-19 09:56:00
5:56 AM,48.0,37.9,68,30.46,10.0,North,9.2,-,N/A,,Overcast,10,2012-11-19 10:56:00
6:56 AM,48.0,37.9,68,30.45,10.0,NE,12.7,-,N/A,,Overcast,40,2012-11-19 11:56:00
7:56 AM,48.0,37.9,68,30.45,10.0,NE,10.4,-,N/A,,Overcast,40,2012-11-19 12:56:00
8:56 AM,48.9,37.9,66,30.45,10.0,NE,12.7,-,N/A,,Mostly Cloudy,50,2012-11-19 13:56:00
9:56 AM,50.0,39.0,66,30.43,10.0,NE,9.2,-,N/A,,Mostly Cloudy,40,2012-11-19 14:56:00
10:56 AM,50.0,39.0,66,30.42,10.0,NE,9.2,-,N/A,,Overcast,40,2012-11-19 15:56:00
11:56 AM,52.0,37.9,59,30.39,10.0,NNE,13.8,-,N/A,,Overcast,20,2012-11-19 16:56:00
12:56 PM,51.1,39.9,66,30.35,10.0,ENE,10.4,-,N/A,,Overcast,60,2012-11-19 17:56:00
1:56 PM,53.1,39.0,59,30.33,10.0,ENE,11.5,-,N/A,,Mostly Cloudy,70,2012-11-19 18:56:00
2:56 PM,54.0,39.0,57,30.32,10.0,NE,10.4,-,N/A,,Mostly Cloudy,40,2012-11-19 19:56:00
3:56 PM,54.0,37.9,55,30.32,10.0,NNE,9.2,-,N/A,,Mostly Cloudy,30,2012-11-19 20:56:00
4:56 PM,52.0,37.9,59,30.31,10.0,North,5.8,-,N/A,,Overcast,10,2012-11-19 21:56:00
5:56 PM,51.1,37.0,59,30.30,10.0,NNW,6.9,-,N/A,,Scattered Clouds,340,2012-11-19 22:56:00
6:56 PM,51.1,37.0,59,30.30,10.0,North,9.2,-,N/A,,Overcast,360,2012-11-19 23:56:00
7:56 PM,50.0,36.0,59,30.29,10.0,North,10.4,-,N/A,,Overcast,360,2012-11-20 00:56:00
8:56 PM,50.0,36.0,59,30.28,10.0,North,10.4,-,N/A,,Overcast,10,2012-11-20 01:56:00
9:56 PM,48.9,37.0,64,30.27,10.0,NE,4.6,-,N/A,,Overcast,40,2012-11-20 02:56:00
10:56 PM,48.9,36.0,61,30.26,10.0,North,5.8,-,N/A,,Overcast,350,2012-11-20 03:56:00
11:56 PM,48.0,34.0,58,30.24,10.0,North,4.6,-,N/A,,Overcast,10,2012-11-20 04:56:00